Regional Weather Roundup
Issued by NWS

Home | Current Version | Previous Version | Text Only | Print | Product List | Glossary Off
Versions: 1 2 3 4 5 6 7 8 9 10 11 12 13 14 15 16 17 18 19 20 21 22 23 24 25 26 27 28 29 30 31 32 33 34 35 36 37 38 39 40 41 42 43 44 45 46 47 48 49 50

613
ASUS45 KBOU 220107
RWRCO

WEATHER ROUNDUP FOR COLORADO
NATIONAL WEATHER SERVICE DENVER/BOULDER CO
600 PM MST SAT JAN 21 2017

NOTE: "FAIR" INDICATES FEW OR NO CLOUDS BELOW 12000 FEET WITH NO
SIGNIFICANT WEATHER AND/OR OBSTRUCTIONS TO VISIBILITY.

COZ001>005-013-030-031-220200-
...NORTHWEST COLORADO...

CITY           SKY/WX    TMP DP  RH WIND       PRES   REMARKS
CRAIG          LGT SNOW  26  22  84 W13       29.63R FOG     WCI  15
HAYDEN         CLOUDY    27  21  80 W10       29.60R WCI  17
MEEKER         LGT SNOW  29  26  89 SW9       29.62R FOG     WCI  20
MOUNT WERNER   NOT AVBL
STEAMBOAT SPGS CLOUDY    27  24  89 S3        29.58R
WALDEN           N/A     18  14  86 CALM      29.56R
$$

COZ006>008-011-220200-
...WEST CENTRAL VALLEYS...

CITY           SKY/WX    TMP DP  RH WIND       PRES   REMARKS
GRAND JUNCTION CLOUDY    34  33  96 N8        29.65R WCI  27
MONTROSE       LGT SNOW  33  32  96 E3        29.65R FOG
EAGLE          LGT SNOW  28  27  93 CALM      29.60R FOG
RIFLE          LGT SNOW  33  32  96 W7        29.62R FOG     WCI  27
DELTA          MOCLDY    38  32  80 SW13      29.63R
NUCLA          MOCLDY    32  30  93 SW5       29.69R WCI  27
$$

COZ017>023-064>068-220200-
...SOUTHWEST COLORADO...

CITY           SKY/WX    TMP DP  RH WIND       PRES   REMARKS
DURANGO        FAIR      29  23  78 W16       29.59R WCI  17
CORTEZ         CLOUDY    34  30  85 W12       29.68R WCI  25
PAGOSA SPRINGS FAIR      27  25  93 SW7       29.58R WCI  19
TELLURIDE      NOT AVBL
WOLF CREEK PAS CLOUDY    12  10  92 SW9       29.59R WCI   0
$$

COZ009-010-012-014-032>034-037-058>063-220200-
...CENTRAL COLORADO...

CITY           SKY/WX    TMP DP  RH WIND       PRES   REMARKS
ASPEN          LGT SNOW  26  25  96 NW3       29.55R FOG
BUENA VISTA    FAIR      22  19  87 CALM      29.50R
COPPER MTN     SNOW      19  14  79 MISG      29.51R VSB 1/2
BERTHOUD PASS  NOT AVBL
COTTONWOOD PAS FAIR      27  19  74 W6        29.50R WCI  20
GUNNISON       CLOUDY    21  16  81 NE5       29.58R WCI  15
KREMMLING      CLOUDY    21  18  86 CALM      29.58R
LEADVILLE      LGT SNOW  19  15  84 NW7       29.50R FOG     WCI  10
MONARCH PASS   CLOUDY    12  10  92 NW5       29.61R WCI   4
SALIDA         CLOUDY    32  24  72 W10G16    29.58R WCI  23
SUNLIGHT       CLOUDY    18  14  86 MISG      29.60R
WILKERSON PASS CLOUDY    19  12  73 NW3       29.52R
$$

COZ069>075-220200-
...SAN LUIS VALLEY/SANGRE DE CRISTO MOUNTAINS...

CITY           SKY/WX    TMP DP  RH WIND       PRES   REMARKS
ALAMOSA        CLOUDY    25  23  92 CALM      29.51R
LA VETA PASS   LGT SNOW  19  18  93 NE17G31   29.47R WCI   4
SAGUACHE       CLOUDY    27  19  74 N6        29.52R WCI  20
$$

COZ035-036-038>040-220200-
...NORTHERN COLORADO FRONT RANGE...

CITY           SKY/WX    TMP DP  RH WIND       PRES   REMARKS
DENVER INTL AP MOCLDY    35  25  66 W5        29.50R WCI  31
DMNS CITY PARK   N/A     35  24  64 NE2       29.51R
AURORA         MOCLDY    32  27  81 N6        29.51R WCI  26
FRONT RANGE AP MOCLDY    36  28  75 NW3       29.51R
ERIE MUNI ARPT MOCLDY    33  26  77 CALM      29.51R
BOULDER MUN AP CLOUDY    36  27  69 CALM      29.50R
CENTENNIAL     MOCLDY    33  23  66 NW5       29.50R WCI  29
BROOMFIELD     MOCLDY    36  27  69 N6        29.50R
FORT COLLINS   FAIR      30  25  80 CALM      29.52R
LONGMONT       CLOUDY    36  27  70 NW3       29.53R
$$

COZ041-046-047-076>085-087-088-220200-
...PIKES PEAK/PALMER DIVIDE AND SOUTHERN FOOTHILLS...

CITY           SKY/WX    TMP DP  RH WIND       PRES   REMARKS
COLO. SPRINGS  MOCLDY    32  23  69 N6        29.49R WCI  26
A. F. ACADEMY  CLOUDY    32  20  60 N8        29.48R WCI  25
SCHRIEVER AFB  NOT AVBL
ELLICOTT       FAIR     N/A N/A N/A E8        29.47R
FALCON         NOT AVBL
FORT CARSON    NOT AVBL
LIMON          CLOUDY    30  27  88 N3        29.49R
MONUMENT HILL  MOCLDY    28  21  74 NW6       29.50R WCI  22
TRINIDAD       CLOUDY    32  26  78 MISG      29.45R
$$

COZ042>045-048>051-090-091-220200-
...NORTHEAST COLORADO...

CITY           SKY/WX    TMP DP  RH WIND       PRES   REMARKS
GREELEY ARPT   FAIR      29  26  89 N7        29.53  WCI  22
AKRON          FAIR      34  25  69 E5        29.50R WCI  30
BURLINGTON     FAIR      36  31  82 NE8       29.47R
WRAY           FAIR      34  28  80 NE3       29.50R
STERLING       FAIR      34  28  80 CALM      29.50R
HOLYOKE        FAIR      36  30  80 NE7       29.51R
FORT MORGAN    FAIR      32  24  71 NE6       29.51R WCI  27
$$

COZ086-089-092>099-220200-
...SOUTHEAST COLORADO...

CITY           SKY/WX    TMP DP  RH WIND       PRES   REMARKS
PUEBLO         FAIR      37  29  72 CALM      29.47R
LA JUNTA       CLOUDY    33  30  88 SW8       29.45R WCI  26
LAMAR          MOCLDY    32  29  88 S5        29.42R WCI  27
SPRINGFIELD      N/A     35  30  82 N16       29.39R WCI  25
$$




USA.gov is the U.S. government's official web portal to all federal, state and local government web resources and services.